RH
31 28 27 22 21 19 19 19 18 18 17 15 15 18 17 16 14 33 14 9 11 12 28 31 20 25 32 28 29 29 17 14 16 17 15 10 10 8 8 8 12 17 21 26 42
38 36 29 26 23 20 21 21 17 17 17 15 16 18 16 13 40 15 10 8 10 14 23 18 14 17 20 18 21 22 14 13 14 13 12 10 10 9 9 7 6 13 33 34 44
48 43 35 32 27 21 22 22 21 19 18 16 16 18 16 19 22 7 12 9 8 15 16 13 12 12 12 17 19 18 14 13 12 9 9 9 9 7 8 8 6 8 21 37 41
51 45 39 35 25 21 22 21 20 20 21 20 19 20 14 51 10 11 11 13 10 19 15 12 11 13 13 17 16 20 13 12 10 8 8 8 6 7 6 6 6 7 9 34 39
47 44 39 35 24 21 19 17 18 19 18 18 20 17 29 14 7 18 12 12 28 15 12 10 11 11 13 13 14 14 10 8 7 7 7 7 7 7 6 10 7 11 14 29 35
43 42 38 36 22 19 17 12 10 10 10 13 14 14 28 5 12 23 23 27 22 13 10 9 9 12 15 13 12 9 9 8 7 7 8 8 6 7 12 13 10 18 20 25 30
44 40 37 36 22 18 17 12 12 11 10 11 13 31 13 8 18 20 16 14 14 11 9 10 16 18 12 11 8 8 9 7 7 7 7 7 8 12 15 15 14 20 26 29 30
45 40 36 35 20 19 17 14 15 14 14 16 20 41 7 10 19 18 13 14 14 14 12 15 17 13 10 9 9 8 8 8 7 7 7 8 10 13 17 17 20 24 28 34 37
43 40 35 33 20 20 18 20 21 19 20 26 41 24 10 13 14 14 12 11 14 15 14 13 12 10 10 10 8 8 8 8 8 8 8 8 10 14 16 19 25 27 30 33 36
42 39 35 31 20 16 19 25 20 24 32 42 33 19 12 10 9 12 14 11 7 9 12 12 10 10 8 8 10 10 9 8 9 8 8 10 12 14 17 16 21 25 30 34 35
42 37 33 29 20 13 24 30 17 16 10 10 11 14 11 9 9 8 11 10 6 7 8 8 8 8 8 9 9 9 10 9 9 8 9 11 14 15 16 15 17 19 24 28 35
35 33 30 27 16 16 19 13 19 20 14 10 10 10 9 9 7 6 9 7 7 8 8 8 9 9 8 9 10 10 10 11 9 9 9 12 14 17 16 17 17 17 20 22 26
22 28 27 25 17 22 19 20 24 22 14 10 9 8 7 7 6 6 6 6 7 8 8 9 9 9 10 10 11 10 11 12 11 10 9 10 10 17 16 15 15 16 16 18 25
12 20 25 22 25 25 18 24 26 23 14 10 8 8 7 7 7 6 5 6 7 8 8 8 8 10 10 10 10 12 9 10 10 11 11 10 11 15 15 16 18 18 18 18 23
9 13 24 29 36 14 22 26 22 17 16 9 8 7 6 6 6 6 6 6 7 8 9 10 10 10 11 11 10 11 10 10 11 11 11 10 12 16 17 18 19 19 21 24 25
7 11 24 38 36 24 27 26 19 17 16 10 7 7 6 6 6 6 6 6 7 8 8 9 9 9 10 10 11 11 12 11 13 10 13 13 13 9 12 16 16 16 21 27 28
7 12 28 31 22 31 30 17 17 16 12 10 9 8 7 8 8 7 8 9 9 12 12 11 11 10 11 12 11 11 11 12 14 13 13 17 14 11 15 17 18 21 22 27 29
8 16 33 31 34 33 20 15 20 15 12 10 10 10 9 10 11 8 9 11 11 9 10 12 16 13 12 13 15 14 13 16 19 14 13 16 18 19 18 18 20 21 20 23 29
14 25 29 29 32 26 16 15 14 15 13 12 10 11 12 11 11 10 11 10 12 12 14 14 14 13 13 13 14 17 18 14 18 19 20 14 15 13 16 19 21 22 24 28 33
48 24 22 29 32 19 15 16 16 14 14 12 14 12 14 13 13 12 13 13 13 12 12 15 17 13 14 13 15 15 15 19 17 25 23 14 18 18 19 17 19 22 27 34 37
37 16 25 28 24 16 14 14 16 14 15 14 14 14 13 14 13 14 14 15 14 14 13 14 17 17 16 17 16 17 18 20 16 20 22 19 15 16 17 19 25 24 27 35 34
33 13 25 26 17 18 14 19 28 16 14 12 13 13 14 14 16 16 17 16 16 14 16 16 15 20 16 16 16 16 18 19 21 23 20 22 21 15 16 22 23 30 34 36 37
32 24 24 24 14 14 20 18 18 18 17 15 13 13 13 15 20 17 17 17 16 15 17 17 17 22 20 18 18 19 17 19 20 22 26 24 18 14 15 16 24 33 38 38 39
41 22 24 23 25 24 21 19 20 19 18 18 16 14 15 16 17 20 18 16 16 16 37 20 18 24 19 18 19 22 18 18 20 24 20 16 15 13 15 26 32 39 42 42 44
38 32 46 30 30 30 29 25 20 21 20 18 18 15 16 20 18 18 16 15 15 36 19 17 25 20 19 16 15 16 17 16 17 17 20 17 17 17 26 38 42 41 44 46 49
41 45 37 33 42 38 40 28 23 22 24 21 21 18 16 19 18 19 16 17 17 19 19 18 24 21 23 16 15 17 15 15 14 14 15 14 19 26 33 33 39 44 46 52 56
52 50 44 40 28 30 24 28 27 28 24 22 24 22 19 20 20 17 15 17 17 21 21 24 20 24 23 16 18 20 16 15 15 16 20 31 31 33 37 41 46 48 52 55 60
Wind_Speed
27 27 26 24 23 20 19 18 16 13 11 9 6 5 6 6 7 3 9 4 8 15 16 14 9 9 9 6 6 4 7 3 1 3 6 8 13 10 9 6 4 1 6 7 27
28 29 27 27 25 22 18 14 13 11 9 7 5 5 6 6 5 11 8 8 8 20 18 17 11 11 7 5 4 9 5 4 4 7 8 9 10 11 13 12 7 3 4 16 30
30 30 30 31 29 20 15 13 12 12 9 7 5 5 5 3 6 4 3 9 12 19 13 10 9 10 8 6 5 2 7 3 7 6 10 14 14 11 10 11 13 12 7 18 23
31 31 33 35 29 18 16 17 17 16 14 13 10 5 2 3 2 2 6 11 17 13 14 10 10 9 7 7 4 9 5 7 10 12 13 14 13 11 6 11 15 13 6 18 22
32 33 34 37 29 19 20 20 14 9 7 4 5 6 4 6 5 4 6 19 21 11 14 10 9 7 8 4 4 10 9 7 10 12 11 9 4 4 7 15 13 9 4 15 17
31 33 35 39 28 20 22 12 10 7 4 4 9 9 4 5 3 6 13 19 14 11 10 8 4 4 2 4 7 6 10 12 6 2 2 4 5 4 12 15 12 8 2 9 14
33 34 35 39 28 20 19 9 9 7 7 7 9 3 4 7 4 10 13 7 13 9 6 7 4 8 0 5 2 8 10 4 2 2 3 3 7 9 12 11 12 11 6 2 6
33 34 35 37 26 20 16 7 6 7 7 7 3 2 4 4 6 11 8 7 8 4 3 4 5 5 6 2 6 5 5 8 8 5 4 5 10 10 11 10 12 13 8 4 3
34 35 35 36 23 18 15 3 4 5 5 2 1 5 8 5 4 8 10 4 8 5 5 3 6 4 6 9 7 5 0 1 5 3 4 6 5 9 9 10 12 13 12 8 5
34 35 35 36 19 15 13 2 2 1 2 3 5 5 7 6 6 6 9 7 4 8 7 7 6 7 6 8 1 3 2 2 0 4 3 1 5 6 7 10 12 13 13 13 10
34 35 35 36 16 14 9 2 4 5 4 4 3 3 5 1 4 8 9 10 6 7 6 5 8 3 5 3 4 4 5 4 3 3 4 1 1 4 5 8 10 11 12 12 12
34 35 35 35 10 11 8 4 5 4 3 2 3 5 5 2 5 9 11 10 7 5 5 7 2 3 2 3 5 4 5 2 2 1 8 6 6 3 3 7 9 11 11 12 12
34 35 35 33 5 7 9 7 5 2 5 3 1 1 2 8 5 12 12 4 4 5 6 4 9 5 4 4 6 2 6 4 8 7 9 6 12 10 6 6 6 10 10 12 12
33 34 34 29 2 5 2 7 9 5 5 7 6 5 7 4 6 4 9 3 4 2 4 2 4 1 0 3 6 3 5 7 10 10 8 4 10 9 8 4 4 8 12 13 13
32 32 31 17 7 3 6 11 2 4 5 6 7 4 4 5 6 6 6 6 4 5 6 7 3 3 4 3 5 6 8 9 12 13 10 11 7 9 7 7 3 6 9 11 13
31 30 27 9 2 4 9 7 4 6 3 6 5 6 9 6 5 6 6 4 2 4 3 3 2 2 3 1 2 8 9 13 8 9 10 4 5 2 4 3 3 7 9 10 10
31 28 16 3 5 10 9 4 5 6 4 6 5 5 5 5 7 6 10 10 7 8 9 6 6 6 2 8 7 9 10 7 5 6 3 4 7 6 6 4 4 7 10 9 9
30 21 5 3 8 7 6 5 6 3 1 3 2 6 7 4 4 6 8 8 3 7 3 6 8 7 1 4 6 4 7 5 7 6 6 6 6 4 3 3 1 5 9 8 9
27 9 3 5 5 6 6 7 3 1 0 3 6 9 7 6 3 7 3 2 2 2 5 4 4 5 3 1 5 5 2 5 8 7 8 3 3 8 5 3 3 10 8 9 10
16 8 2 9 4 7 5 5 2 2 3 5 8 4 9 6 8 8 8 3 6 2 2 3 6 6 5 4 3 6 3 6 4 7 9 4 8 9 7 6 11 11 10 9 10
6 4 3 9 3 5 6 0 3 2 2 4 4 5 4 4 4 4 4 5 1 4 2 2 4 8 5 9 4 6 9 3 6 5 8 10 2 6 5 6 10 14 11 11 12
6 4 5 7 5 1 5 1 0 2 2 4 4 3 6 4 5 5 7 2 2 1 3 2 5 9 7 6 2 6 5 7 6 5 8 10 14 5 4 6 11 11 11 12 13
6 4 3 4 5 6 4 4 2 3 0 3 6 4 4 5 4 4 5 4 2 1 0 2 4 8 11 10 8 9 8 9 7 7 12 11 9 2 5 13 10 10 10 12 14
4 3 3 2 2 6 4 5 5 2 2 2 1 5 7 7 4 6 7 5 2 4 2 1 8 9 12 13 8 10 12 11 12 9 15 15 19 16 14 14 10 10 11 11 12
1 3 4 1 4 3 4 2 8 7 2 2 5 5 8 8 8 7 5 6 6 6 4 4 9 12 12 14 16 16 18 16 19 20 19 19 20 17 14 10 8 7 8 12 14
4 4 2 4 3 5 4 6 8 4 4 5 7 1 4 8 7 6 7 5 5 7 6 2 9 11 15 17 17 20 20 21 22 21 20 18 16 7 8 10 8 8 9 11 15
4 2 4 1 3 5 5 4 5 3 4 2 4 6 8 5 4 3 5 2 3 6 6 6 8 7 14 7 9 13 19 18 14 11 12 11 12 13 12 10 7 8 8 9 10
Wind_Direction
12 10 5 358 351 342 333 325 319 313 312 314 312 303 302 305 300 246 238 237 187 175 156 160 172 179 198 234 239 256 256 259 121 308 330 347 335 349 343 299 19 349 342 94 153
10 7 3 359 350 340 335 330 321 317 313 310 297 304 307 314 262 243 245 211 178 168 163 170 176 180 204 227 216 255 283 5 10 318 318 314 328 330 320 333 6 124 100 142 159
7 6 4 360 353 350 345 337 325 313 302 293 273 298 299 319 251 100 206 194 184 168 181 187 175 198 228 230 191 225 291 359 304 335 319 316 308 328 304 316 350 348 154 166 172
4 5 3 1 357 356 347 333 318 303 288 279 262 266 243 231 133 65 299 183 164 163 170 175 183 209 236 225 209 263 252 290 301 315 308 300 318 313 351 349 338 319 289 181 185
2 3 2 1 359 356 346 335 333 323 312 274 205 176 154 203 84 3 106 148 154 170 186 194 198 225 235 236 241 251 292 299 294 297 294 310 313 342 354 351 338 338 211 190 196
0 1 1 1 358 357 350 360 12 20 44 111 138 153 227 169 95 118 129 146 172 180 188 213 232 243 253 249 264 349 291 291 293 342 157 315 85 8 3 346 4 19 105 196 201
359 359 0 0 358 359 359 14 23 45 78 113 135 146 242 82 120 149 146 162 172 191 191 204 222 223 143 247 271 282 282 165 128 13 99 333 113 25 357 352 11 17 47 99 195
357 358 359 360 356 358 3 10 27 66 94 115 129 228 69 120 124 160 170 142 177 211 224 178 223 269 266 325 237 261 250 183 99 339 55 300 83 32 0 9 27 30 39 62 147
355 356 357 357 354 351 355 20 47 74 107 76 223 269 122 159 192 181 188 188 166 165 154 154 218 263 213 240 205 214 119 279 133 91 328 328 33 37 14 38 38 38 42 40 61
353 353 354 353 353 352 352 316 339 346 303 265 258 230 158 132 123 141 183 170 161 153 168 212 221 226 202 241 327 353 286 129 246 68 233 116 64 69 34 48 50 49 51 51 45
351 351 352 352 352 358 1 256 230 179 211 340 18 318 106 73 194 181 173 187 190 217 222 197 232 207 23 327 333 305 299 305 116 82 259 63 71 51 34 43 52 50 42 51 50
350 349 350 352 358 3 14 50 40 340 298 197 277 262 249 269 174 152 172 199 205 200 189 203 175 59 273 289 252 243 278 36 203 151 270 189 205 165 70 58 48 46 46 41 39
349 348 348 351 359 31 53 56 337 248 258 125 173 200 147 200 198 161 195 186 219 190 207 290 74 113 193 174 214 143 330 354 325 311 241 261 237 183 134 111 67 51 41 49 38
347 346 347 350 38 350 53 343 328 212 237 134 159 126 163 229 169 147 206 261 194 66 182 176 103 67 164 64 306 270 3 301 296 297 300 314 294 181 152 143 66 36 20 25 28
344 343 344 348 315 327 336 330 309 222 220 140 127 118 159 246 115 155 188 220 214 133 238 99 184 201 241 60 335 14 318 308 301 280 283 231 260 116 149 198 131 58 29 21 14
341 341 339 347 298 324 323 321 215 231 167 145 149 175 188 181 140 133 177 210 326 220 232 85 162 282 34 191 298 310 260 250 261 263 239 117 282 234 166 131 123 49 36 23 15
337 338 335 331 346 319 319 228 236 253 149 152 154 196 201 158 154 207 185 188 222 201 191 166 160 126 336 248 192 307 317 292 238 207 336 87 277 286 115 142 38 13 11 12 9
334 333 318 302 312 324 285 235 251 46 189 124 195 180 206 175 155 175 194 189 185 253 243 244 176 190 31 11 336 4 325 322 300 302 322 167 260 99 108 140 68 334 350 355 357
335 330 251 348 317 315 274 236 340 200 41 221 182 212 165 159 250 183 218 158 88 260 263 218 179 133 93 4 292 100 295 358 278 211 259 267 237 237 178 174 330 342 326 355 344
330 312 206 331 297 273 253 273 187 356 310 226 235 253 209 175 206 215 187 147 139 90 301 99 263 182 135 219 112 336 71 237 199 277 294 258 263 263 212 340 346 326 337 344 334
305 286 80 343 268 240 253 93 193 114 312 236 211 195 222 196 260 195 166 125 171 129 305 251 257 153 186 210 317 177 208 252 293 279 304 297 311 83 283 331 327 321 330 333 326
317 253 16 339 244 237 234 200 316 221 205 221 265 262 225 191 198 200 190 20 78 263 236 79 276 271 293 71 295 275 289 274 292 281 263 281 277 44 10 307 325 315 323 325 320
325 296 325 312 248 212 151 184 254 250 218 213 198 250 213 194 192 205 153 102 85 243 343 155 256 263 222 183 195 229 230 261 276 281 266 283 280 157 267 302 346 323 324 324 321
294 276 158 200 330 298 216 206 202 158 204 305 250 215 190 196 213 179 182 142 118 94 27 210 271 267 283 325 336 276 265 247 263 275 288 285 300 296 314 332 326 335 333 330 326
278 65 357 15 115 301 256 353 232 210 207 252 191 246 218 211 210 214 196 169 176 139 208 271 269 281 268 282 280 272 269 270 270 268 272 290 292 302 326 346 331 335 331 330 333
319 331 319 282 280 265 161 207 245 185 258 184 256 197 210 239 234 222 232 225 264 163 249 231 279 277 275 273 266 269 265 265 266 271 279 277 277 13 342 301 339 326 329 338 338
11 284 281 138 236 243 245 251 227 259 179 317 319 276 219 106 325 327 293 308 311 280 273 269 283 261 278 298 294 260 251 254 263 267 277 288 336 335 323 328 320 310 329 327 339